Home   Weather   Bastia   Past weeks

Flag for France Past Weather in Bastia, Corsica, France — Yesterday and Last 2 Weeks

Now
48 °F

Light rain. Passing clouds.


Feels Like: 46 °F
Forecast: 49 / 51 °F
Wind: 5 mph from Northwest

Location: Bastia Airport

Current Time: Jan 22, 2017 at 3:12:58 am

Latest Report: Jan 22, 2017 at 2:30 am


Visibility: 4 mi

Pressure: 30.15 "Hg

Humidity: 87%

Dew Point: 45 °F

Location of BastiaLocation

Past Weather in Bastia — Graph

°F

Bastia Temperature Yesterday

Maximum temperature yesterday: 54 °F (at 11:30 am)
Minimum temperature yesterday: 37 °F (at 12:00 am)
Average temperature yesterday: 48 °F

High & Low Weather Summary for the Past Weeks

 TemperatureHumidityPressure
High59 °F (Jan 12, 1:30 pm)93% (Jan 9, 3:30 am)30.39 "Hg (Jan 9, 3:30 am)
Low28 °F (Jan 7, 5:30 am)24% (Jan 13, 2:00 pm)29.56 "Hg (Jan 13, 11:00 am)
Average44 °F67%30.03 "Hg
* Reported Jan 7 1:00 am — Jan 22 1:30 am, Bastia, Weather by CustomWeather, © 2017

Note: Actual official high and low records may vary slightly from our data, if they occured in-between our weather recording intervals... More about our weather records

Advertising

Bastia Weather History for the Previous 24 Hours

Scroll right to see more
 ConditionsComfort  
Time TempWeatherWind HumidityBarometerVisibility
1:30 am
Sun, Jan 22
48 °FRain. Overcast.5 mph87%30.18 "Hg4 mi
1:00 am50 °FLight rain. Overcast.5 mph76%30.18 "HgN/A
12:30 am50 °FMostly cloudy.5 mph71%30.18 "HgN/A
12:00 am50 °FOvercast.3 mph71%30.18 "HgN/A
11:30 pm
Sat, Jan 21
50 °FOvercast.No wind71%30.18 "HgN/A
11:00 pm50 °FPassing clouds.2 mph71%30.18 "HgN/A
10:30 pm50 °FPassing clouds.3 mph71%30.18 "HgN/A
10:00 pm50 °FPassing clouds.5 mph71%30.18 "HgN/A
9:30 pm50 °FPassing clouds.2 mph71%30.18 "HgN/A
9:00 pm50 °FPassing clouds.3 mph71%30.18 "HgN/A
8:30 pm52 °FPassing clouds.3 mph62%30.18 "HgN/A
8:00 pm52 °FPassing clouds.3 mph62%30.18 "HgN/A
7:30 pm52 °FPassing clouds.2 mph62%30.18 "HgN/A
7:00 pm50 °FPassing clouds.3 mph71%30.18 "HgN/A
6:30 pm50 °FPassing clouds.5 mph67%30.18 "HgN/A
6:00 pm50 °FPassing clouds.2 mph67%30.18 "HgN/A
5:30 pm50 °FPassing clouds.2 mph71%30.18 "HgN/A
5:00 pm50 °FPartly sunny.2 mph71%30.18 "HgN/A
4:30 pm52 °FPartly sunny.5 mph67%30.18 "HgN/A
4:00 pm52 °FPartly sunny.3 mph67%30.18 "HgN/A
3:30 pm52 °FPartly sunny.5 mph67%30.18 "HgN/A
3:10 pm54 °FBroken clouds.5 mph63%30.18 "HgN/A
2:30 pm52 °FBroken clouds.5 mph67%30.18 "HgN/A
2:00 pm54 °FBroken clouds.8 mph63%30.21 "HgN/A
1:30 pm54 °FBroken clouds.8 mph67%30.21 "HgN/A
1:00 pm54 °FScattered clouds.8 mph63%30.21 "HgN/A
12:30 pm54 °FScattered clouds.9 mph63%30.24 "HgN/A
12:00 pm54 °FScattered clouds.10 mph63%30.24 "HgN/A
11:30 am54 °FBroken clouds.10 mph63%30.27 "HgN/A
11:00 am52 °FBroken clouds.10 mph67%30.27 "HgN/A
10:30 am52 °FPartly sunny.7 mph67%30.27 "HgN/A
10:00 am50 °FPartly sunny.3 mph76%30.27 "HgN/A
9:30 am50 °FBroken clouds.3 mph76%30.27 "HgN/A
9:00 am46 °FBroken clouds.5 mph87%30.27 "HgN/A
8:30 am45 °FBroken clouds.3 mph81%30.27 "HgN/A
8:00 am45 °FPartly sunny.3 mph81%30.27 "HgN/A
7:30 am45 °FMostly cloudy.3 mph81%30.27 "HgN/A
7:00 am45 °FPassing clouds.3 mph87%30.27 "HgN/A
6:30 am45 °FPassing clouds.3 mph87%30.27 "HgN/A
6:00 am45 °FPassing clouds.3 mph87%30.27 "HgN/A
5:30 am45 °FPartly cloudy.2 mph87%30.27 "HgN/A
4:30 am41 °FPartly cloudy.3 mph93%30.27 "HgN/A
4:00 am41 °FPartly cloudy.2 mph93%30.30 "HgN/A
3:30 am41 °FPassing clouds.3 mph87%30.30 "HgN/A
3:14 am41 °FPassing clouds.No wind87%30.30 "HgN/A
Weather by CustomWeather, © 2017

See weather overviewHow to use our weather pages